Time,TemperatureF,DewpointF,PressureIn,WindDirection,WindDirectionDegrees,WindSpeedMPH,WindSpeedGustMPH,Humidity,HourlyPrecipIn,Conditions,Clouds,dailyrainin,SoftwareType,DateUTC
2013-03-28 00:00:00,34.6,33.6,29.87,North,355,3.0,5.0,96,0.01,,SKC,0.09,VWS V14.01,2013-03-28 04:00:00,
2013-03-28 00:05:00,34.6,33.6,29.87,North,355,1.0,4.0,96,0.01,,SKC,0.09,VWS V14.01,2013-03-28 04:05:00,
2013-03-28 00:10:00,34.6,33.6,29.87,North,360,0.0,6.0,96,0.01,,SKC,0.00,VWS V14.01,2013-03-28 04:10:00,
2013-03-28 00:15:00,34.5,33.7,29.87,NNW,339,5.0,6.0,97,0.01,,SKC,0.00,VWS V14.01,2013-03-28 04:15:00,
2013-03-28 00:20:00,34.6,33.8,29.87,NNW,346,3.0,4.0,97,0.01,,SKC,0.00,VWS V14.01,2013-03-28 04:20:00,
2013-03-28 00:25:00,34.6,33.8,29.87,North,11,3.0,7.0,97,0.00,,SKC,0.00,VWS V14.01,2013-03-28 04:25:00,
2013-03-28 00:30:00,34.6,33.8,29.87,NNW,330,4.0,7.0,97,0.00,,SKC,0.00,VWS V14.01,2013-03-28 04:30:00,
2013-03-28 00:35:00,34.6,33.8,29.87,NW,315,0.0,7.0,97,0.00,,SKC,0.00,VWS V14.01,2013-03-28 04:35:00,
2013-03-28 00:40:00,34.6,33.8,29.87,NNE,15,0.0,7.0,97,0.00,,SKC,0.00,VWS V14.01,2013-03-28 04:40:00,
2013-03-28 00:45:00,34.6,33.8,29.87,NNW,337,4.0,7.0,97,0.00,,SKC,0.00,VWS V14.01,2013-03-28 04:45:00,
2013-03-28 00:50:00,34.6,33.8,29.87,NNW,327,3.0,3.0,97,0.00,,SKC,0.00,VWS V14.01,2013-03-28 04:50:00,
2013-03-28 00:55:00,34.6,33.8,29.87,NW,320,0.0,2.0,97,0.00,,SKC,0.00,VWS V14.01,2013-03-28 04:55:00,
2013-03-28 01:00:00,34.6,33.8,29.87,North,355,2.0,6.0,97,0.00,,SKC,0.00,VWS V14.01,2013-03-28 05:00:00,
2013-03-28 01:05:00,34.5,33.7,29.87,North,355,2.0,5.0,97,0.00,,SKC,0.00,VWS V14.01,2013-03-28 05:05:00,
2013-03-28 01:10:00,34.5,33.7,29.87,NNW,330,1.0,4.0,97,0.00,,SKC,0.00,VWS V14.01,2013-03-28 05:10:00,
2013-03-28 01:15:00,34.5,33.7,29.87,North,355,2.0,5.0,97,0.00,,SKC,0.00,VWS V14.01,2013-03-28 05:15:00,
2013-03-28 01:20:00,34.4,33.6,29.87,North,355,1.0,1.0,97,0.00,,SKC,0.00,VWS V14.01,2013-03-28 05:20:00,
2013-03-28 01:25:00,34.3,33.5,29.87,North,355,2.0,3.0,97,0.00,,SKC,0.00,VWS V14.01,2013-03-28 05:25:00,
2013-03-28 01:30:00,34.3,33.5,29.87,NNW,329,0.0,7.0,97,0.00,,SKC,0.00,VWS V14.01,2013-03-28 05:30:00,
2013-03-28 01:35:00,34.3,33.5,29.87,NNW,342,1.0,7.0,97,0.00,,SKC,0.00,VWS V14.01,2013-03-28 05:35:00,
2013-03-28 01:40:00,34.3,33.5,29.87,North,355,4.0,5.0,97,0.00,,SKC,0.00,VWS V14.01,2013-03-28 05:40:00,
2013-03-28 01:45:00,34.3,33.5,29.88,NNW,348,0.0,5.0,97,0.00,,SKC,0.00,VWS V14.01,2013-03-28 05:45:00,
2013-03-28 01:50:00,34.3,33.5,29.87,NNW,337,3.0,5.0,97,0.00,,SKC,0.00,VWS V14.01,2013-03-28 05:50:00,
2013-03-28 01:55:00,34.3,33.5,29.87,NNW,335,3.0,6.0,97,0.00,,SKC,0.00,VWS V14.01,2013-03-28 05:55:00,
2013-03-28 02:00:00,34.2,33.4,29.87,North,5,0.0,0.0,97,0.00,,SKC,0.00,VWS V14.01,2013-03-28 06:00:00,
2013-03-28 02:05:00,34.3,33.5,29.87,North,355,0.0,0.0,97,0.00,,SKC,0.00,VWS V14.01,2013-03-28 06:05:00,
2013-03-28 02:10:00,34.3,33.5,29.87,NNW,336,0.0,3.0,97,0.00,,SKC,0.00,VWS V14.01,2013-03-28 06:10:00,
2013-03-28 02:15:00,34.2,33.4,29.87,NNW,348,0.0,3.0,97,0.00,,SKC,0.00,VWS V14.01,2013-03-28 06:15:00,
2013-03-28 02:20:00,34.3,33.5,29.87,NNW,329,4.0,4.0,97,0.00,,SKC,0.00,VWS V14.01,2013-03-28 06:20:00,
2013-03-28 02:25:00,34.2,33.4,29.87,NNW,348,3.0,6.0,97,0.00,,SKC,0.00,VWS V14.01,2013-03-28 06:25:00,
2013-03-28 02:30:00,34.3,33.5,29.87,NNW,330,3.0,6.0,97,0.00,,SKC,0.00,VWS V14.01,2013-03-28 06:30:00,
2013-03-28 02:35:00,34.3,33.5,29.87,NNW,344,2.0,6.0,97,0.00,,SKC,0.00,VWS V14.01,2013-03-28 06:35:00,
2013-03-28 02:40:00,34.4,33.6,29.87,NNW,335,3.0,6.0,97,0.00,,SKC,0.00,VWS V14.01,2013-03-28 06:40:00,
2013-03-28 02:45:00,34.5,33.7,29.87,North,355,0.0,6.0,97,0.00,,SKC,0.00,VWS V14.01,2013-03-28 06:45:00,
2013-03-28 02:50:00,34.4,33.6,29.87,North,350,2.0,6.0,97,0.00,,SKC,0.00,VWS V14.01,2013-03-28 06:50:00,
2013-03-28 02:55:00,34.4,33.6,29.87,North,5,0.0,7.0,97,0.00,,SKC,0.00,VWS V14.01,2013-03-28 06:55:00,
2013-03-28 03:00:00,34.3,33.5,29.87,NNE,13,2.0,7.0,97,0.00,,SKC,0.00,VWS V14.01,2013-03-28 07:00:00,
2013-03-28 03:05:00,34.3,33.5,29.87,NNE,19,2.0,7.0,97,0.00,,SKC,0.00,VWS V14.01,2013-03-28 07:05:00,
2013-03-28 03:10:00,34.3,33.5,29.87,NNW,338,1.0,3.0,97,0.00,,SKC,0.00,VWS V14.01,2013-03-28 07:10:00,
2013-03-28 03:15:00,34.2,33.4,29.87,North,355,3.0,5.0,97,0.00,,SKC,0.00,VWS V14.01,2013-03-28 07:15:00,
2013-03-28 03:20:00,34.2,33.4,29.88,North,360,4.0,5.0,97,0.00,,SKC,0.00,VWS V14.01,2013-03-28 07:20:00,
2013-03-28 03:25:00,34.2,33.4,29.88,NNW,339,2.0,5.0,97,0.00,,SKC,0.00,VWS V14.01,2013-03-28 07:25:00,
2013-03-28 03:30:00,34.1,33.3,29.88,NNW,348,0.0,5.0,97,0.00,,SKC,0.00,VWS V14.01,2013-03-28 07:30:00,
2013-03-28 03:35:00,34.0,33.2,29.88,NNW,336,2.0,2.0,97,0.00,,SKC,0.00,VWS V14.01,2013-03-28 07:35:00,
2013-03-28 03:40:00,34.0,33.2,29.88,North,10,1.0,4.0,97,0.00,,SKC,0.00,VWS V14.01,2013-03-28 07:40:00,
2013-03-28 03:45:00,33.9,33.1,29.88,NNW,344,3.0,5.0,97,0.00,,SKC,0.00,VWS V14.01,2013-03-28 07:45:00,
2013-03-28 03:50:00,33.8,33.0,29.88,North,355,0.0,0.0,97,0.00,,SKC,0.00,VWS V14.01,2013-03-28 07:50:00,
2013-03-28 03:55:00,33.7,32.9,29.88,North,11,2.0,4.0,97,0.00,,SKC,0.00,VWS V14.01,2013-03-28 07:55:00,
2013-03-28 04:00:00,33.7,32.9,29.88,NW,313,3.0,4.0,97,0.00,,SKC,0.00,VWS V14.01,2013-03-28 08:00:00,
2013-03-28 04:05:00,33.7,32.9,29.88,North,355,2.0,4.0,97,0.00,,SKC,0.00,VWS V14.01,2013-03-28 08:05:00,
2013-03-28 04:10:00,33.7,32.9,29.88,NNW,342,0.0,3.0,97,0.00,,SKC,0.00,VWS V14.01,2013-03-28 08:10:00,
2013-03-28 04:15:00,33.6,32.8,29.88,NNE,19,0.0,0.0,97,0.00,,SKC,0.00,VWS V14.01,2013-03-28 08:15:00,
2013-03-28 04:20:00,33.6,32.8,29.88,NNW,337,3.0,4.0,97,0.00,,SKC,0.00,VWS V14.01,2013-03-28 08:20:00,
2013-03-28 04:25:00,33.6,32.8,29.88,NNW,346,1.0,4.0,97,0.00,,SKC,0.00,VWS V14.01,2013-03-28 08:25:00,
2013-03-28 04:30:00,33.6,32.8,29.88,NNW,345,2.0,4.0,97,0.00,,SKC,0.00,VWS V14.01,2013-03-28 08:30:00,
2013-03-28 04:35:00,33.6,32.8,29.88,North,349,0.0,4.0,97,0.00,,SKC,0.00,VWS V14.01,2013-03-28 08:35:00,
2013-03-28 04:40:00,33.6,32.8,29.88,NW,321,0.0,2.0,97,0.00,,SKC,0.00,VWS V14.01,2013-03-28 08:40:00,
2013-03-28 04:45:00,33.6,32.8,29.88,NNW,343,1.0,3.0,97,0.00,,SKC,0.00,VWS V14.01,2013-03-28 08:45:00,
2013-03-28 04:50:00,33.6,32.8,29.88,NNE,14,0.0,0.0,97,0.00,,SKC,0.00,VWS V14.01,2013-03-28 08:50:00,
2013-03-28 04:55:00,33.6,32.8,29.88,North,355,0.0,3.0,97,0.00,,SKC,0.00,VWS V14.01,2013-03-28 08:55:00,
2013-03-28 05:00:00,33.6,32.8,29.88,NNW,329,2.0,5.0,97,0.00,,SKC,0.00,VWS V14.01,2013-03-28 09:00:00,
2013-03-28 05:06:00,33.6,32.8,29.88,North,355,6.0,6.0,97,0.00,,SKC,0.00,VWS V14.01,2013-03-28 09:06:00,
2013-03-28 05:11:00,33.7,32.9,29.88,NNW,338,3.0,5.0,97,0.00,,SKC,0.00,VWS V14.01,2013-03-28 09:11:00,
2013-03-28 05:16:00,33.7,32.9,29.89,North,5,1.0,6.0,97,0.00,,SKC,0.00,VWS V14.01,2013-03-28 09:16:00,
2013-03-28 05:21:00,33.7,32.9,29.89,North,355,3.0,6.0,97,0.00,,SKC,0.00,VWS V14.01,2013-03-28 09:21:00,
2013-03-28 05:26:00,33.7,32.9,29.89,North,355,3.0,6.0,97,0.00,,SKC,0.00,VWS V14.01,2013-03-28 09:26:00,
2013-03-28 05:31:00,33.8,33.0,29.89,NNW,347,0.0,6.0,97,0.00,,SKC,0.00,VWS V14.01,2013-03-28 09:31:00,
2013-03-28 05:36:00,33.8,33.0,29.89,NNW,333,0.0,5.0,97,0.00,,SKC,0.00,VWS V14.01,2013-03-28 09:36:00,
2013-03-28 05:41:00,33.7,32.9,29.89,NNW,347,6.0,6.0,97,0.00,,SKC,0.00,VWS V14.01,2013-03-28 09:41:00,
2013-03-28 05:46:00,33.7,32.9,29.89,North,5,3.0,6.0,97,0.00,,SKC,0.00,VWS V14.01,2013-03-28 09:46:00,
2013-03-28 05:51:00,33.8,33.0,29.89,North,11,2.0,2.0,97,0.00,,SKC,0.00,VWS V14.01,2013-03-28 09:51:00,
2013-03-28 05:56:00,33.8,33.0,29.89,NNE,26,3.0,6.0,97,0.00,,SKC,0.00,VWS V14.01,2013-03-28 09:56:00,
2013-03-28 06:01:00,33.7,32.9,29.89,North,10,1.0,6.0,97,0.00,,SKC,0.00,VWS V14.01,2013-03-28 10:01:00,
2013-03-28 06:06:00,33.7,32.9,29.89,NNW,327,0.0,1.0,97,0.00,,SKC,0.00,VWS V14.01,2013-03-28 10:06:00,
2013-03-28 06:11:00,33.7,32.9,29.89,North,355,0.0,3.0,97,0.00,,SKC,0.00,VWS V14.01,2013-03-28 10:11:00,
2013-03-28 06:16:00,33.7,32.9,29.90,North,355,2.0,4.0,97,0.00,,SKC,0.00,VWS V14.01,2013-03-28 10:16:00,
2013-03-28 06:21:00,33.7,32.9,29.90,North,360,2.0,5.0,97,0.00,,SKC,0.00,VWS V14.01,2013-03-28 10:21:00,
2013-03-28 06:26:00,33.7,32.9,29.90,NNW,327,0.0,5.0,97,0.00,,SKC,0.00,VWS V14.01,2013-03-28 10:26:00,
2013-03-28 06:31:00,33.7,32.9,29.90,NNW,336,0.0,6.0,97,0.00,,SKC,0.00,VWS V14.01,2013-03-28 10:31:00,
2013-03-28 06:36:00,33.8,33.0,29.90,NNW,340,0.0,0.0,97,0.00,,SKC,0.00,VWS V14.01,2013-03-28 10:36:00,
2013-03-28 06:41:00,33.9,33.1,29.90,NNW,341,0.0,4.0,97,0.00,,SKC,0.00,VWS V14.01,2013-03-28 10:41:00,
2013-03-28 06:46:00,33.9,33.1,29.90,NNW,337,0.0,3.0,97,0.00,,SKC,0.00,VWS V14.01,2013-03-28 10:46:00,
2013-03-28 06:52:00,33.8,33.0,29.90,NNE,12,0.0,0.0,97,0.00,,SKC,0.00,VWS V14.01,2013-03-28 10:52:00,
2013-03-28 06:57:00,33.8,33.0,29.91,North,11,0.0,2.0,97,0.00,,SKC,0.00,VWS V14.01,2013-03-28 10:57:00,
2013-03-28 07:02:00,33.8,33.0,29.91,North,5,0.0,3.0,97,0.00,,SKC,0.00,VWS V14.01,2013-03-28 11:02:00,
2013-03-28 07:07:00,33.9,33.1,29.91,NNW,344,1.0,3.0,97,0.00,,SKC,0.00,VWS V14.01,2013-03-28 11:07:00,
2013-03-28 07:12:00,33.9,33.1,29.91,NNW,344,0.0,3.0,97,0.00,,SKC,0.00,VWS V14.01,2013-03-28 11:12:00,
2013-03-28 07:17:00,34.0,33.2,29.91,North,5,0.0,4.0,97,0.00,,SKC,0.00,VWS V14.01,2013-03-28 11:17:00,
2013-03-28 07:22:00,34.1,33.3,29.92,North,355,0.0,0.0,97,0.00,,SKC,0.00,VWS V14.01,2013-03-28 11:22:00,
2013-03-28 07:27:00,34.2,33.4,29.92,NNW,329,0.0,2.0,97,0.00,,SKC,0.00,VWS V14.01,2013-03-28 11:27:00,
2013-03-28 07:32:00,34.2,33.4,29.92,NNW,327,0.0,3.0,97,0.00,,SKC,0.00,VWS V14.01,2013-03-28 11:32:00,
2013-03-28 07:37:00,34.3,33.5,29.92,NNW,327,0.0,0.0,97,0.00,,SKC,0.00,VWS V14.01,2013-03-28 11:37:00,
2013-03-28 07:42:00,34.4,33.6,29.92,NW,324,0.0,1.0,97,0.00,,SKC,0.00,VWS V14.01,2013-03-28 11:42:00,
2013-03-28 07:47:00,34.5,33.7,29.92,NNW,331,1.0,3.0,97,0.00,,SKC,0.00,VWS V14.01,2013-03-28 11:47:00,
2013-03-28 07:52:00,34.7,33.9,29.92,NW,319,0.0,2.0,97,0.00,,SKC,0.00,VWS V14.01,2013-03-28 11:52:00,
2013-03-28 07:57:00,34.9,34.1,29.92,NNW,345,0.0,3.0,97,0.00,,SKC,0.00,VWS V14.01,2013-03-28 11:57:00,
2013-03-28 08:02:00,35.1,34.3,29.93,North,355,0.0,4.0,97,0.00,,SKC,0.00,VWS V14.01,2013-03-28 12:02:00,
2013-03-28 08:07:00,35.2,34.4,29.93,NNW,340,0.0,3.0,97,0.00,,SKC,0.00,VWS V14.01,2013-03-28 12:07:00,
2013-03-28 08:12:00,35.5,34.5,29.92,NNW,341,3.0,5.0,96,0.00,,SKC,0.00,VWS V14.01,2013-03-28 12:12:00,
2013-03-28 08:17:00,35.7,34.7,29.93,North,355,3.0,5.0,96,0.00,,SKC,0.00,VWS V14.01,2013-03-28 12:17:00,
2013-03-28 08:22:00,35.9,34.9,29.93,NNW,338,1.0,2.0,96,0.00,,SKC,0.00,VWS V14.01,2013-03-28 12:22:00,
2013-03-28 08:27:00,36.1,35.1,29.93,NNW,340,2.0,4.0,96,0.00,,SKC,0.00,VWS V14.01,2013-03-28 12:27:00,
2013-03-28 08:32:00,36.3,35.0,29.93,NNW,348,2.0,4.0,95,0.00,,SKC,0.00,VWS V14.01,2013-03-28 12:32:00,
2013-03-28 08:37:00,36.5,35.2,29.93,North,5,2.0,3.0,95,0.00,,SKC,0.00,VWS V14.01,2013-03-28 12:37:00,
2013-03-28 08:42:00,36.8,35.5,29.93,North,350,0.0,5.0,95,0.00,,SKC,0.00,VWS V14.01,2013-03-28 12:42:00,
2013-03-28 08:47:00,37.0,35.4,29.93,NNW,332,5.0,5.0,94,0.00,,SKC,0.00,VWS V14.01,2013-03-28 12:47:00,
2013-03-28 08:52:00,37.2,35.6,29.93,North,355,0.0,6.0,94,0.00,,SKC,0.00,VWS V14.01,2013-03-28 12:52:00,
2013-03-28 08:57:00,37.5,35.7,29.93,NNW,346,3.0,6.0,93,0.00,,SKC,0.00,VWS V14.01,2013-03-28 12:57:00,
2013-03-28 09:02:00,37.8,36.0,29.93,North,355,4.0,6.0,93,0.00,,SKC,0.00,VWS V14.01,2013-03-28 13:02:00,
2013-03-28 09:07:00,38.1,36.0,29.93,North,5,7.0,7.0,92,0.00,,SKC,0.00,VWS V14.01,2013-03-28 13:07:00,
2013-03-28 09:12:00,38.4,36.3,29.93,NNW,346,0.0,7.0,92,0.00,,SKC,0.00,VWS V14.01,2013-03-28 13:12:00,
2013-03-28 09:17:00,38.8,36.7,29.93,North,9,0.0,7.0,92,0.00,,SKC,0.00,VWS V14.01,2013-03-28 13:17:00,
2013-03-28 09:22:00,39.0,36.3,29.93,NNW,341,2.0,3.0,90,0.00,,SKC,0.00,VWS V14.01,2013-03-28 13:22:00,
2013-03-28 09:27:00,39.4,36.7,29.93,North,360,2.0,3.0,90,0.00,,SKC,0.00,VWS V14.01,2013-03-28 13:27:00,
2013-03-28 09:32:00,39.6,36.3,29.93,North,355,2.0,6.0,88,0.00,,SKC,0.00,VWS V14.01,2013-03-28 13:32:00,
2013-03-28 09:37:00,39.9,36.6,29.93,North,351,0.0,3.0,88,0.00,,SKC,0.00,VWS V14.01,2013-03-28 13:37:00,
2013-03-28 09:42:00,40.1,36.5,29.93,WNW,302,6.0,6.0,87,0.00,,SKC,0.00,VWS V14.01,2013-03-28 13:42:00,
2013-03-28 09:47:00,40.1,36.3,29.93,NNE,32,2.0,7.0,86,0.00,,SKC,0.00,VWS V14.01,2013-03-28 13:47:00,
2013-03-28 09:52:00,40.2,36.1,29.94,NNW,333,4.0,5.0,85,0.00,,SKC,0.00,VWS V14.01,2013-03-28 13:52:00,
2013-03-28 09:57:00,40.2,35.8,29.94,NNW,348,4.0,6.0,84,0.00,,SKC,0.00,VWS V14.01,2013-03-28 13:57:00,
2013-03-28 10:02:00,40.3,35.6,29.94,NNE,19,3.0,8.0,83,0.00,,SKC,0.00,VWS V14.01,2013-03-28 14:02:00,
2013-03-28 10:07:00,40.3,34.6,29.94,North,355,3.0,7.0,80,0.00,,SKC,0.00,VWS V14.01,2013-03-28 14:07:00,
2013-03-28 10:12:00,40.2,34.2,29.94,NE,49,0.0,7.0,79,0.00,,SKC,0.00,VWS V14.01,2013-03-28 14:12:00,
2013-03-28 10:17:00,40.5,34.8,29.94,NNE,32,9.0,9.0,80,0.00,,SKC,0.00,VWS V14.01,2013-03-28 14:17:00,
2013-03-28 10:22:00,40.4,34.4,29.95,NE,46,7.0,7.0,79,0.00,,SKC,0.00,VWS V14.01,2013-03-28 14:22:00,
2013-03-28 10:27:00,40.4,33.8,29.95,NE,41,3.0,3.0,77,0.00,,SKC,0.00,VWS V14.01,2013-03-28 14:27:00,
2013-03-28 10:32:00,40.5,33.5,29.95,NNE,32,2.0,8.0,76,0.00,,SKC,0.00,VWS V14.01,2013-03-28 14:32:00,
2013-03-28 10:37:00,40.6,33.6,29.95,North,11,4.0,6.0,76,0.00,,SKC,0.00,VWS V14.01,2013-03-28 14:37:00,
2013-03-28 10:42:00,40.5,33.9,29.95,NNE,32,1.0,11.0,77,0.00,,SKC,0.00,VWS V14.01,2013-03-28 14:42:00,
2013-03-28 10:47:00,40.3,34.3,29.95,NNE,30,0.0,11.0,79,0.00,,SKC,0.00,VWS V14.01,2013-03-28 14:47:00,
2013-03-28 10:52:00,40.2,34.5,29.95,NNE,18,4.0,5.0,80,0.00,,SKC,0.00,VWS V14.01,2013-03-28 14:52:00,
2013-03-28 10:57:00,40.0,34.0,29.95,NNE,16,3.0,8.0,79,0.00,,SKC,0.00,VWS V14.01,2013-03-28 14:57:00,
2013-03-28 11:02:00,40.0,34.3,29.96,ENE,58,3.0,8.0,80,0.00,,SKC,0.00,VWS V14.01,2013-03-28 15:02:00,
2013-03-28 11:07:00,39.8,34.5,29.96,North,351,2.0,5.0,81,0.00,,SKC,0.00,VWS V14.01,2013-03-28 15:07:00,
2013-03-28 11:12:00,39.5,34.5,29.96,NE,36,2.0,2.0,82,0.00,,SKC,0.00,VWS V14.01,2013-03-28 15:12:00,
2013-03-28 11:17:00,39.2,34.8,29.96,ENE,69,0.0,6.0,84,0.01,,SKC,0.01,VWS V14.01,2013-03-28 15:17:00,
2013-03-28 11:22:00,39.0,35.2,29.96,ENE,58,0.0,1.0,86,0.01,,SKC,0.01,VWS V14.01,2013-03-28 15:22:00,
2013-03-28 11:27:00,39.1,35.6,29.96,NE,34,0.0,4.0,87,0.01,,SKC,0.01,VWS V14.01,2013-03-28 15:27:00,
2013-03-28 11:32:00,39.2,35.7,29.96,NNE,32,4.0,4.0,87,0.01,,SKC,0.01,VWS V14.01,2013-03-28 15:32:00,
2013-03-28 11:37:00,39.2,35.7,29.96,NE,48,0.0,2.0,87,0.01,,SKC,0.01,VWS V14.01,2013-03-28 15:37:00,
2013-03-28 11:42:00,39.2,36.0,29.96,NE,36,0.0,0.0,88,0.01,,SKC,0.01,VWS V14.01,2013-03-28 15:42:00,
2013-03-28 11:48:00,39.3,36.0,29.96,NE,44,0.0,0.0,88,0.00,,SKC,0.01,VWS V14.01,2013-03-28 15:48:00,
2013-03-28 11:53:00,39.4,36.2,29.96,ENE,59,0.0,1.0,88,0.01,,SKC,0.01,VWS V14.01,2013-03-28 15:53:00,
2013-03-28 11:58:00,39.6,36.3,29.96,NNW,338,0.0,3.0,88,0.01,,SKC,0.01,VWS V14.01,2013-03-28 15:58:00,
2013-03-28 12:03:00,39.8,36.2,29.96,NNE,28,1.0,5.0,87,0.01,,SKC,0.01,VWS V14.01,2013-03-28 16:03:00,
2013-03-28 12:08:00,40.2,36.1,29.95,NE,42,3.0,7.0,85,0.01,,SKC,0.01,VWS V14.01,2013-03-28 16:08:00,
2013-03-28 12:13:00,41.0,36.8,29.95,NNW,342,1.0,7.0,85,0.01,,SKC,0.01,VWS V14.01,2013-03-28 16:13:00,
2013-03-28 12:18:00,41.8,37.0,29.95,NW,317,0.0,7.0,83,0.01,,SKC,0.01,VWS V14.01,2013-03-28 16:18:00,
2013-03-28 12:23:00,42.7,37.6,29.95,North,355,2.0,6.0,82,0.00,,SKC,0.01,VWS V14.01,2013-03-28 16:23:00,
2013-03-28 12:28:00,43.7,38.0,29.95,NE,40,0.0,8.0,80,0.00,,SKC,0.01,VWS V14.01,2013-03-28 16:28:00,
2013-03-28 12:33:00,44.0,36.3,29.95,NNE,32,4.0,10.0,74,0.00,,SKC,0.01,VWS V14.01,2013-03-28 16:33:00,
2013-03-28 12:38:00,43.8,36.1,29.95,ENE,59,0.0,3.0,74,0.00,,SKC,0.01,VWS V14.01,2013-03-28 16:38:00,
2013-03-28 12:43:00,43.9,35.5,29.95,North,351,5.0,8.0,72,0.00,,SKC,0.01,VWS V14.01,2013-03-28 16:43:00,
2013-03-28 12:48:00,43.9,35.8,29.95,North,10,4.0,8.0,73,0.00,,SKC,0.01,VWS V14.01,2013-03-28 16:48:00,
2013-03-28 12:53:00,43.7,35.6,29.95,NNW,333,2.0,8.0,73,0.00,,SKC,0.01,VWS V14.01,2013-03-28 16:53:00,
2013-03-28 12:58:00,43.6,35.5,29.95,NNW,337,7.0,8.0,73,0.00,,SKC,0.01,VWS V14.01,2013-03-28 16:58:00,
2013-03-28 13:03:00,43.6,35.2,29.95,NW,313,2.0,6.0,72,0.00,,SKC,0.01,VWS V14.01,2013-03-28 17:03:00,
2013-03-28 13:08:00,43.6,35.2,29.95,NE,39,3.0,7.0,72,0.00,,SKC,0.01,VWS V14.01,2013-03-28 17:08:00,
2013-03-28 13:13:00,43.5,35.1,29.94,NNE,33,0.0,6.0,72,0.00,,SKC,0.01,VWS V14.01,2013-03-28 17:13:00,
2013-03-28 13:18:00,43.6,35.2,29.94,NE,46,1.0,7.0,72,0.00,,SKC,0.01,VWS V14.01,2013-03-28 17:18:00,
2013-03-28 13:22:00,43.9,35.5,29.94,NNW,335,5.0,5.0,72,0.00,,SKC,0.01,VWS V14.01,2013-03-28 17:22:00,
2013-03-28 13:28:00,43.9,35.5,29.94,NNW,329,0.0,0.0,72,0.00,,SKC,0.01,VWS V14.01,2013-03-28 17:28:00,
2013-03-28 13:33:00,44.0,35.6,29.94,NNW,346,0.0,2.0,72,0.00,,SKC,0.01,VWS V14.01,2013-03-28 17:33:00,
2013-03-28 13:38:00,44.1,35.0,29.94,North,5,1.0,3.0,70,0.00,,SKC,0.01,VWS V14.01,2013-03-28 17:38:00,
2013-03-28 13:43:00,44.2,35.4,29.94,NNE,22,0.0,3.0,71,0.00,,SKC,0.01,VWS V14.01,2013-03-28 17:43:00,
2013-03-28 13:48:00,44.2,35.4,29.93,NNW,344,0.0,4.0,71,0.00,,SKC,0.01,VWS V14.01,2013-03-28 17:48:00,
2013-03-28 13:53:00,44.3,35.5,29.93,NW,325,3.0,5.0,71,0.00,,SKC,0.01,VWS V14.01,2013-03-28 17:53:00,
2013-03-28 13:58:00,44.7,35.5,29.93,NW,321,0.0,8.0,70,0.00,,SKC,0.01,VWS V14.01,2013-03-28 17:58:00,
2013-03-28 14:03:00,45.2,35.7,29.93,North,11,1.0,8.0,69,0.00,,SKC,0.01,VWS V14.01,2013-03-28 18:03:00,
2013-03-28 14:08:00,45.9,35.2,29.93,NNE,17,0.0,6.0,66,0.00,,SKC,0.01,VWS V14.01,2013-03-28 18:08:00,
2013-03-28 14:13:00,46.6,34.7,29.93,NW,319,3.0,5.0,63,0.00,,SKC,0.01,VWS V14.01,2013-03-28 18:13:00,
2013-03-28 14:15:00,46.8,34.5,29.93,North,5,3.0,3.0,62,0.00,,SKC,0.01,VWS V14.01,2013-03-28 18:15:00,
2013-03-28 14:18:00,46.6,34.3,29.93,North,5,0.0,5.0,62,0.00,,SKC,0.01,VWS V14.01,2013-03-28 18:18:00,
2013-03-28 14:23:00,46.8,34.9,29.93,NNW,329,0.0,1.0,63,0.00,,SKC,0.01,VWS V14.01,2013-03-28 18:23:00,
2013-03-28 14:28:00,46.4,32.9,29.93,South,173,0.0,0.0,59,0.00,,SKC,0.01,VWS V14.01,2013-03-28 18:28:00,
2013-03-28 14:33:00,46.2,32.7,29.93,NNW,328,3.0,5.0,59,0.00,,SKC,0.01,VWS V14.01,2013-03-28 18:33:00,
2013-03-28 14:38:00,45.9,32.0,29.93,NW,319,0.0,4.0,58,0.00,,SKC,0.01,VWS V14.01,2013-03-28 18:38:00,
2013-03-28 14:43:00,45.8,32.7,29.93,NE,48,4.0,5.0,60,0.00,,SKC,0.01,VWS V14.01,2013-03-28 18:43:00,
2013-03-28 14:48:00,45.4,31.1,29.93,North,360,0.0,5.0,57,0.00,,SKC,0.01,VWS V14.01,2013-03-28 18:48:00,
2013-03-28 14:53:00,45.1,30.8,29.93,North,11,0.0,0.0,57,0.00,,SKC,0.01,VWS V14.01,2013-03-28 18:53:00,
2013-03-28 14:58:00,44.8,29.6,29.93,North,10,0.0,1.0,55,0.00,,SKC,0.01,VWS V14.01,2013-03-28 18:58:00,
2013-03-28 15:03:00,44.8,30.5,29.92,North,10,0.0,1.0,57,0.00,,SKC,0.01,VWS V14.01,2013-03-28 19:03:00,
2013-03-28 15:08:00,44.9,30.2,29.92,West,271,0.0,3.0,56,0.00,,SKC,0.01,VWS V14.01,2013-03-28 19:08:00,
2013-03-28 15:13:00,45.2,29.1,29.93,WNW,284,1.0,3.0,53,0.00,,SKC,0.01,VWS V14.01,2013-03-28 19:13:00,
2013-03-28 15:18:00,45.6,29.0,29.92,NW,315,0.0,4.0,52,0.00,,SKC,0.01,VWS V14.01,2013-03-28 19:18:00,
2013-03-28 15:23:00,46.0,29.8,29.92,North,360,0.0,1.0,53,0.00,,SKC,0.01,VWS V14.01,2013-03-28 19:23:00,
2013-03-28 15:28:00,46.3,29.6,29.92,NW,304,2.0,2.0,52,0.00,,SKC,0.01,VWS V14.01,2013-03-28 19:28:00,
2013-03-28 15:33:00,46.4,29.8,29.92,NW,304,0.0,4.0,52,0.00,,SKC,0.01,VWS V14.01,2013-03-28 19:33:00,
2013-03-28 15:38:00,46.4,30.2,29.92,NW,304,0.0,1.0,53,0.00,,SKC,0.01,VWS V14.01,2013-03-28 19:38:00,
2013-03-28 15:43:00,46.2,29.6,29.92,North,360,0.0,4.0,52,0.00,,SKC,0.01,VWS V14.01,2013-03-28 19:43:00,
2013-03-28 15:48:00,46.0,29.8,29.92,NNW,336,0.0,1.0,53,0.00,,SKC,0.01,VWS V14.01,2013-03-28 19:48:00,
2013-03-28 15:53:00,46.0,30.3,29.92,NNW,336,0.0,2.0,54,0.00,,SKC,0.01,VWS V14.01,2013-03-28 19:53:00,
2013-03-28 15:58:00,46.0,30.3,29.92,NNW,336,0.0,2.0,54,0.00,,SKC,0.01,VWS V14.01,2013-03-28 19:58:00,
2013-03-28 16:03:00,46.0,30.8,29.92,NW,326,1.0,4.0,55,0.00,,SKC,0.01,VWS V14.01,2013-03-28 20:03:00,
2013-03-28 16:08:00,46.1,30.9,29.92,NNW,333,0.0,3.0,55,0.00,,SKC,0.01,VWS V14.01,2013-03-28 20:08:00,
2013-03-28 16:13:00,46.2,31.4,29.91,NNW,327,0.0,4.0,56,0.00,,SKC,0.01,VWS V14.01,2013-03-28 20:13:00,
2013-03-28 16:18:00,46.1,31.3,29.91,NNW,327,3.0,4.0,56,0.00,,SKC,0.01,VWS V14.01,2013-03-28 20:18:00,
2013-03-28 16:23:00,46.4,31.1,29.92,NNW,340,5.0,5.0,55,0.00,,SKC,0.01,VWS V14.01,2013-03-28 20:23:00,
2013-03-28 16:28:00,46.8,31.5,29.91,NW,314,1.0,6.0,55,0.00,,SKC,0.01,VWS V14.01,2013-03-28 20:28:00,
2013-03-28 16:33:00,46.9,31.6,29.91,NNW,340,4.0,6.0,55,0.00,,SKC,0.01,VWS V14.01,2013-03-28 20:33:00,
2013-03-28 16:39:00,47.0,31.2,29.91,WNW,284,0.0,0.0,54,0.00,,SKC,0.01,VWS V14.01,2013-03-28 20:39:00,
2013-03-28 16:44:00,47.5,31.2,29.91,NNW,329,2.0,8.0,53,0.00,,SKC,0.01,VWS V14.01,2013-03-28 20:44:00,
2013-03-28 16:49:00,48.0,31.2,29.91,North,355,1.0,8.0,52,0.00,,SKC,0.01,VWS V14.01,2013-03-28 20:49:00,
2013-03-28 16:54:00,47.8,31.0,29.91,West,275,6.0,7.0,52,0.00,,SKC,0.01,VWS V14.01,2013-03-28 20:54:00,
2013-03-28 16:59:00,47.3,31.5,29.92,NW,321,6.0,9.0,54,0.00,,SKC,0.01,VWS V14.01,2013-03-28 20:59:00,
2013-03-28 17:04:00,47.1,31.3,29.92,North,5,10.0,10.0,54,0.00,,SKC,0.01,VWS V14.01,2013-03-28 21:04:00,
2013-03-28 17:09:00,46.9,31.6,29.92,North,5,4.0,4.0,55,0.00,,SKC,0.01,VWS V14.01,2013-03-28 21:09:00,
2013-03-28 17:14:00,47.1,32.2,29.92,NE,46,0.0,8.0,56,0.00,,SKC,0.01,VWS V14.01,2013-03-28 21:14:00,
2013-03-28 17:19:00,47.2,32.8,29.92,North,5,0.0,8.0,57,0.00,,SKC,0.01,VWS V14.01,2013-03-28 21:19:00,
2013-03-28 17:24:00,47.0,33.0,29.92,NW,306,2.0,10.0,58,0.00,,SKC,0.01,VWS V14.01,2013-03-28 21:24:00,
2013-03-28 17:29:00,46.9,32.9,29.92,NW,306,2.0,10.0,58,0.00,,SKC,0.01,VWS V14.01,2013-03-28 21:29:00,
2013-03-28 17:34:00,46.7,32.7,29.92,NNW,348,3.0,10.0,58,0.00,,SKC,0.01,VWS V14.01,2013-03-28 21:34:00,
2013-03-28 17:39:00,46.6,32.6,29.92,NNW,329,1.0,5.0,58,0.00,,SKC,0.01,VWS V14.01,2013-03-28 21:39:00,
2013-03-28 17:44:00,46.5,33.0,29.92,NW,321,6.0,6.0,59,0.00,,SKC,0.01,VWS V14.01,2013-03-28 21:44:00,
2013-03-28 17:49:00,46.2,32.7,29.92,WNW,298,4.0,6.0,59,0.00,,SKC,0.01,VWS V14.01,2013-03-28 21:49:00,
2013-03-28 17:54:00,46.0,32.9,29.92,West,263,8.0,8.0,60,0.00,,SKC,0.01,VWS V14.01,2013-03-28 21:54:00,
2013-03-28 17:59:00,45.6,33.3,29.92,WNW,295,0.0,0.0,62,0.00,,SKC,0.01,VWS V14.01,2013-03-28 21:59:00,
2013-03-28 18:04:00,45.1,33.3,29.93,NW,322,3.0,8.0,63,0.00,,SKC,0.01,VWS V14.01,2013-03-28 22:04:00,
2013-03-28 18:09:00,44.8,33.4,29.93,NNW,333,1.0,5.0,64,0.00,,SKC,0.01,VWS V14.01,2013-03-28 22:09:00,
2013-03-28 18:14:00,44.5,33.5,29.93,NNW,346,1.0,6.0,65,0.00,,SKC,0.01,VWS V14.01,2013-03-28 22:14:00,
2013-03-28 18:20:00,44.4,33.8,29.93,NNW,346,1.0,1.0,66,0.00,,SKC,0.01,VWS V14.01,2013-03-28 22:20:00,
2013-03-28 18:25:00,44.2,33.6,29.93,North,360,0.0,6.0,66,0.00,,SKC,0.01,VWS V14.01,2013-03-28 22:25:00,
2013-03-28 18:30:00,44.0,33.4,29.93,North,355,3.0,6.0,66,0.00,,SKC,0.01,VWS V14.01,2013-03-28 22:30:00,
2013-03-28 18:35:00,43.9,33.7,29.93,NNW,336,3.0,7.0,67,0.00,,SKC,0.01,VWS V14.01,2013-03-28 22:35:00,
2013-03-28 18:40:00,43.8,33.6,29.93,NW,305,2.0,6.0,67,0.00,,SKC,0.01,VWS V14.01,2013-03-28 22:40:00,
2013-03-28 18:45:00,43.6,33.4,29.93,NNW,336,0.0,7.0,67,0.00,,SKC,0.01,VWS V14.01,2013-03-28 22:45:00,
2013-03-28 18:50:00,43.3,33.5,29.94,NNW,344,0.0,7.0,68,0.00,,SKC,0.01,VWS V14.01,2013-03-28 22:50:00,
2013-03-28 18:55:00,43.1,33.6,29.94,NNW,338,0.0,3.0,69,0.00,,SKC,0.01,VWS V14.01,2013-03-28 22:55:00,
2013-03-28 19:00:00,42.9,33.4,29.94,WNW,303,1.0,1.0,69,0.00,,SKC,0.01,VWS V14.01,2013-03-28 23:00:00,
2013-03-28 19:05:00,42.6,33.2,29.94,NW,322,0.0,4.0,69,0.00,,SKC,0.01,VWS V14.01,2013-03-28 23:05:00,
2013-03-28 19:10:00,42.3,33.2,29.94,NW,323,0.0,0.0,70,0.00,,SKC,0.01,VWS V14.01,2013-03-28 23:10:00,
2013-03-28 19:15:00,41.9,33.2,29.94,NW,323,0.0,1.0,71,0.00,,SKC,0.01,VWS V14.01,2013-03-28 23:15:00,
2013-03-28 19:20:00,41.6,32.9,29.94,NW,317,0.0,5.0,71,0.00,,SKC,0.01,VWS V14.01,2013-03-28 23:20:00,
2013-03-28 19:25:00,41.4,33.1,29.94,NW,316,0.0,2.0,72,0.00,,SKC,0.01,VWS V14.01,2013-03-28 23:25:00,
2013-03-28 19:30:00,41.1,32.8,29.95,NW,326,0.0,0.0,72,0.00,,SKC,0.01,VWS V14.01,2013-03-28 23:30:00,
2013-03-28 19:35:00,40.8,32.5,29.95,NNW,327,0.0,4.0,72,0.00,,SKC,0.01,VWS V14.01,2013-03-28 23:35:00,
2013-03-28 19:40:00,40.6,32.6,29.95,NNW,346,0.0,2.0,73,0.00,,SKC,0.01,VWS V14.01,2013-03-28 23:40:00,
2013-03-28 19:45:00,40.4,32.4,29.95,NNW,346,0.0,2.0,73,0.00,,SKC,0.01,VWS V14.01,2013-03-28 23:45:00,
2013-03-28 19:50:00,40.2,32.2,29.95,NNW,346,0.0,2.0,73,0.00,,SKC,0.01,VWS V14.01,2013-03-28 23:50:00,
2013-03-28 19:55:00,40.0,32.4,29.95,NNW,346,0.0,0.0,74,0.00,,SKC,0.01,VWS V14.01,2013-03-28 23:55:00,
2013-03-28 20:00:00,39.8,32.2,29.95,NW,325,1.0,1.0,74,0.00,,SKC,0.01,VWS V14.01,2013-03-29 00:00:00,
2013-03-28 20:05:00,39.7,32.4,29.95,NNW,329,2.0,4.0,75,0.00,,SKC,0.01,VWS V14.01,2013-03-29 00:05:00,
2013-03-28 20:10:00,39.7,32.4,29.96,NNW,329,3.0,3.0,75,0.00,,SKC,0.01,VWS V14.01,2013-03-29 00:10:00,
2013-03-28 20:16:00,39.7,32.4,29.96,North,355,4.0,4.0,75,0.00,,SKC,0.01,VWS V14.01,2013-03-29 00:16:00,
2013-03-28 20:22:00,39.8,32.5,29.96,North,355,0.0,0.0,75,0.00,,SKC,0.01,VWS V14.01,2013-03-29 00:22:00,
2013-03-28 20:27:00,39.8,32.5,29.96,North,355,0.0,1.0,75,0.00,,SKC,0.01,VWS V14.01,2013-03-29 00:27:00,
2013-03-28 20:32:00,39.7,32.4,29.96,North,355,0.0,2.0,75,0.00,,SKC,0.01,VWS V14.01,2013-03-29 00:32:00,
2013-03-28 20:37:00,39.5,32.2,29.96,North,355,0.0,0.0,75,0.00,,SKC,0.01,VWS V14.01,2013-03-29 00:37:00,
2013-03-28 20:42:00,39.3,32.0,29.96,NNW,340,0.0,3.0,75,0.00,,SKC,0.01,VWS V14.01,2013-03-29 00:42:00,
2013-03-28 20:47:00,39.2,32.3,29.96,North,350,0.0,3.0,76,0.00,,SKC,0.01,VWS V14.01,2013-03-29 00:47:00,
2013-03-28 20:52:00,39.1,32.2,29.96,NNW,343,0.0,2.0,76,0.00,,SKC,0.01,VWS V14.01,2013-03-29 00:52:00,
2013-03-28 20:57:00,39.2,32.3,29.96,NNW,347,0.0,2.0,76,0.00,,SKC,0.01,VWS V14.01,2013-03-29 00:57:00,
2013-03-28 21:02:00,39.1,32.2,29.96,North,5,0.0,3.0,76,0.00,,SKC,0.01,VWS V14.01,2013-03-29 01:02:00,
2013-03-28 21:07:00,39.1,32.2,29.96,NNE,19,0.0,0.0,76,0.00,,SKC,0.01,VWS V14.01,2013-03-29 01:07:00,
2013-03-28 21:12:00,39.2,32.3,29.97,NNW,329,0.0,4.0,76,0.00,,SKC,0.01,VWS V14.01,2013-03-29 01:12:00,
2013-03-28 21:17:00,39.3,32.0,29.97,NNW,331,0.0,4.0,75,0.00,,SKC,0.01,VWS V14.01,2013-03-29 01:17:00,
2013-03-28 21:22:00,39.3,32.4,29.97,North,350,0.0,0.0,76,0.00,,SKC,0.01,VWS V14.01,2013-03-29 01:22:00,
2013-03-28 21:27:00,39.2,32.0,29.97,NNW,346,0.0,3.0,75,0.00,,SKC,0.01,VWS V14.01,2013-03-29 01:27:00,
2013-03-28 21:32:00,39.2,32.3,29.97,NNW,346,0.0,3.0,76,0.00,,SKC,0.01,VWS V14.01,2013-03-29 01:32:00,
2013-03-28 21:37:00,39.1,31.9,29.97,West,280,0.0,1.0,75,0.00,,SKC,0.01,VWS V14.01,2013-03-29 01:37:00,
2013-03-28 21:42:00,39.0,32.1,29.97,NW,323,0.0,0.0,76,0.00,,SKC,0.01,VWS V14.01,2013-03-29 01:42:00,
2013-03-28 21:47:00,38.9,32.0,29.97,North,351,0.0,3.0,76,0.00,,SKC,0.01,VWS V14.01,2013-03-29 01:47:00,
2013-03-28 21:52:00,39.0,32.1,29.98,NNE,15,0.0,2.0,76,0.00,,SKC,0.01,VWS V14.01,2013-03-29 01:52:00,
2013-03-28 21:57:00,39.0,31.8,29.98,North,360,0.0,3.0,75,0.00,,SKC,0.01,VWS V14.01,2013-03-29 01:57:00,
2013-03-28 22:02:00,39.0,31.8,29.98,North,355,1.0,3.0,75,0.00,,SKC,0.01,VWS V14.01,2013-03-29 02:02:00,
2013-03-28 22:07:00,38.9,31.7,29.98,North,355,0.0,0.0,75,0.00,,SKC,0.01,VWS V14.01,2013-03-29 02:07:00,
2013-03-28 22:12:00,38.7,31.8,29.98,North,350,2.0,3.0,76,0.00,,SKC,0.01,VWS V14.01,2013-03-29 02:12:00,
2013-03-28 22:17:00,38.5,31.6,29.98,North,350,0.0,0.0,76,0.00,,SKC,0.01,VWS V14.01,2013-03-29 02:17:00,
2013-03-28 22:22:00,38.3,31.4,29.98,North,355,0.0,2.0,76,0.00,,SKC,0.01,VWS V14.01,2013-03-29 02:22:00,
2013-03-28 22:27:00,38.1,31.5,29.98,North,355,0.0,2.0,77,0.00,,SKC,0.01,VWS V14.01,2013-03-29 02:27:00,
2013-03-28 22:32:00,37.7,31.1,29.98,NW,311,2.0,3.0,77,0.00,,SKC,0.01,VWS V14.01,2013-03-29 02:32:00,
2013-03-28 22:37:00,37.3,31.1,29.97,NNW,331,0.0,2.0,78,0.00,,SKC,0.01,VWS V14.01,2013-03-29 02:37:00,
2013-03-28 22:42:00,37.1,31.2,29.97,NNW,332,0.0,2.0,79,0.00,,SKC,0.01,VWS V14.01,2013-03-29 02:42:00,
2013-03-28 22:47:00,37.0,31.4,29.97,WNW,296,0.0,4.0,80,0.00,,SKC,0.01,VWS V14.01,2013-03-29 02:47:00,
2013-03-28 22:52:00,36.8,31.5,29.97,WNW,296,0.0,2.0,81,0.00,,SKC,0.01,VWS V14.01,2013-03-29 02:52:00,
2013-03-28 22:57:00,36.6,31.3,29.97,WNW,296,0.0,2.0,81,0.00,,SKC,0.01,VWS V14.01,2013-03-29 02:57:00,
2013-03-28 23:02:00,36.3,31.3,29.97,WNW,296,1.0,1.0,82,0.00,,SKC,0.01,VWS V14.01,2013-03-29 03:02:00,
2013-03-28 23:07:00,36.2,31.2,29.97,NW,321,0.0,2.0,82,0.00,,SKC,0.01,VWS V14.01,2013-03-29 03:07:00,
2013-03-28 23:12:00,36.1,30.8,29.97,NNW,331,0.0,3.0,81,0.00,,SKC,0.01,VWS V14.01,2013-03-29 03:12:00,
2013-03-28 23:17:00,36.1,30.8,29.97,NW,323,1.0,3.0,81,0.00,,SKC,0.01,VWS V14.01,2013-03-29 03:17:00,
2013-03-28 23:22:00,36.2,31.2,29.97,NW,314,0.0,1.0,82,0.00,,SKC,0.01,VWS V14.01,2013-03-29 03:22:00,
2013-03-28 23:27:00,36.2,31.5,29.97,NW,307,0.0,2.0,83,0.00,,SKC,0.01,VWS V14.01,2013-03-29 03:27:00,
2013-03-28 23:32:00,36.2,31.2,29.97,NW,307,0.0,2.0,82,0.00,,SKC,0.01,VWS V14.01,2013-03-29 03:32:00,
2013-03-28 23:37:00,36.2,31.2,29.97,NNW,342,0.0,3.0,82,0.00,,SKC,0.01,VWS V14.01,2013-03-29 03:37:00,
2013-03-28 23:43:00,36.1,31.1,29.97,NNW,328,1.0,1.0,82,0.00,,SKC,0.01,VWS V14.01,2013-03-29 03:43:00,
2013-03-28 23:48:00,36.2,30.9,29.97,NNW,330,0.0,0.0,81,0.00,,SKC,0.01,VWS V14.01,2013-03-29 03:48:00,
2013-03-28 23:53:00,36.3,31.0,29.97,NNW,329,0.0,0.0,81,0.00,,SKC,0.01,VWS V14.01,2013-03-29 03:53:00,
2013-03-28 23:58:00,36.4,31.1,29.97,NNW,333,0.0,1.0,81,0.00,,SKC,0.01,VWS V14.01,2013-03-29 03:58:00,